Weather Roundup
Issued by NWS Chicago, IL

Home | Current Version | Previous Version | Graphics & Text | Print | Product List | Glossary On
Versions: 1 2 3 4 5 6 7 8 9 10 11 12 13 14 15 16 17 18 19 20 21 22 23 24 25 26 27 28 29 30 31 32 33 34 35 36 37 38 39 40 41 42 43 44 45 46 47 48 49 50
000
NZUS59 KLOT 011610
HRRLOT

CHICAGO AREA WEATHER ROUNDUP
NATIONAL WEATHER SERVICE CHICAGO/ROMEOVILLE IL
1100 AM CDT MON SEP 01 2014

NOTE: "FAIR" INDICATES FEW OR NO CLOUDS BELOW 12,000 FEET WITH NO
SIGNIFICANT WEATHER AND/OR OBSTRUCTIONS TO VISIBILITY.

* THESE STATIONS ARE NOT UNDER NWS QUALITY CONTROL. THEY ALSO MAY NOT
  REPORT WEATHER SUCH AS PRECIPITATION OR FOG.

ILZ005-006-012>014-019>023-011700-
NORTHEAST ILLINOIS

CITY           SKY/WX    TMP DP  RH WIND       PRES   REMARKS
OHARE          LGT RAIN  75  69  81 SW8       29.78S
MIDWAY         CLOUDY    78  71  79 SW15      29.79R HX  80
AURORA         CLOUDY    75  69  81 W13       29.80R
LANSING*         N/A    N/A N/A N/A MISG        N/A
JOLIET*        CLOUDY    75  69  79 W8        29.81R
WAUKEGAN       LGT RAIN  73  71  93 SW14      29.77R FOG
DUPAGE AIRPORT CLOUDY    75  71  87 W13       29.79R
WHEELING       CLOUDY    76  71  85 SW8       29.79S
KANKAKEE*      CLOUDY    77  72  84 SW17G24   29.80R
MORRIS*        CLOUDY    77  72  83 W12       29.79S
LEWIS AIRPORT* CLOUDY    75  71  87 W13G20    29.80R
NORTHERLY IS     N/A     77  68  73 S8          N/A
$$

WIZ051-052-058>065-066-070>072-011700-
SOUTHEAST WISCONSIN

CITY           SKY/WX    TMP DP  RH WIND       PRES   REMARKS
MILWAUKEE      LGT RAIN  73  69  87 SW14      29.75R
KENOSHA*       CLOUDY    74  70  87 SW14      29.76R
RACINE*        LGT RAIN  74  69  85 SW12      29.77R
BURLINGTON     CLOUDY    70  68  93 SW9       29.76S
WAUKESHA       PTSUNNY   70  68  94 SW9       29.76R FOG
WEST BEND      LGT RAIN  72  66  83 SW12      29.73R
$$

INZ001>003-010>013-019-020-011700-
NORTHWEST INDIANA

CITY           SKY/WX    TMP DP  RH WIND       PRES   REMARKS
GARY*          CLOUDY    77  72  83 S14G25    29.77S FOG
MICHIGAN CITY* NOT AVBL
RENSSELAER*    NOT AVBL
VALPARAISO     CLOUDY    74  71  91 S14G21    29.81R
$$

LMZ740>746-011700-
SOUTHERN LAKE MICHIGAN

STATION/POSITION TIME  SKY/WX   TEMP WIND        PRES    VSBY
                                AIR  DIR/SP/G
                 (UTC)          (F)  (DEG/KT/KT) (MB)    (MI)
HARRISON CRIB    1600            76  210/ 20/ 25   N/A
BURNHAM HARBOR   1600            77  200/  6/ 16   N/A
CALUMET HARBOR   1600            76  210/  7/ 12 1007.3R
BURNS HARBOR     NOT AVBL
MICHIGAN CITY    1600            74  170/ 18/ 25   N/A
$$

ABBREVIATIONS USED IN REMARKS
   TC - TEMPERATURE IN CELSIUS
  WCI - WIND CHILL INDEX
   HX - HEAT INDEX
  VSB - VISIBILITY
$$


USA.gov is the U.S. government's official web portal to all federal, state and local government web resources and services.